Location: Mountain View
(37.3861°N, 122.0839°W)
Time: 03:53:43
(UTC-07:00)

X-37B - Visible Passes

Search period start: 27 September 2021 00:00
Search period end: 07 October 2021 00:00
Orbit: 381 x 393 km, 45.0° (Epoch: 29 August)

Date Brightness Start Highest point End Pass type
(mag) Time Alt. Az. Time Alt. Az. Time Alt. Az.
27 Sep 2.5 05:35:03 18° NNW 05:35:46 20° N 05:38:12 10° NE visible
28 Sep 3.9 04:39:20 12° NE 04:39:20 12° NE 04:39:45 10° NE visible
28 Sep 2.6 06:11:55 10° NW 06:14:28 22° N 06:17:01 10° ENE visible
29 Sep 2.7 05:15:56 20° N 05:15:56 20° N 05:18:16 10° NE visible
30 Sep 2.3 05:52:34 15° NW 05:54:31 27° NNE 05:57:17 10° ENE visible
01 Oct 3.2 04:56:59 19° NE 04:56:59 19° NE 04:58:29 10° ENE visible
01 Oct 0.9 06:29:49 10° WNW 06:32:58 66° NNE 06:36:06 10° ESE visible
02 Oct 1.7 05:33:46 33° NNW 05:34:31 39° NNE 05:37:30 10° E visible
03 Oct 4.0 04:38:21 12° ENE 04:38:21 12° ENE 04:38:45 10° ENE visible
03 Oct 0.6 06:10:40 18° WNW 06:12:48 64° SSW 06:15:55 10° SE visible
04 Oct 1.9 05:15:22 40° E 05:15:22 40° E 05:17:34 10° ESE visible
05 Oct 1.5 05:52:31 31° SW 05:52:34 31° SW 05:55:24 10° SSE visible
